Location: Newark
(52.3735°N, 16.9806°E)
Time: 01:35:07
(UTC+00:00)

ISS - Pass Details

Date: 30 September 2021
Orbit: 417 x 423 km, 51.6° (Epoch: 25 October)

Event Time Altitude Azimuth Distance (km) Brightness Sun altitude
Rises 17:27:29 0° 279° (W) 2,366 2.5 -9.4°
Reaches altitude 10° 17:29:35 10° 275° (W) 1,502 0.7 -9.7°
Maximum altitude 17:32:55 60° 196° (SSW) 487 -3.4 -10.2°
Enters shadow 17:35:32 15° 118° (ESE) 1,225 -2.0 -10.6°
